Starlink 32118

operational
NORAD ID: 60280 Int'l Des: 2024-132 Owner: SPXS Country: US Constellation: starlink
LEOCIRCULAR

Starlink 32118について

説明を読み込み中...

リアルタイム位置

3D地球を読み込み中...

次回通過

高度履歴

Altitude vs Time

uPlot chart will show altitude changes over time

軌道要素

1 60280U 24132C 25307.63896119 -.00000224 00000-0 45603-5 0 9990
2 60280 53.1607 277.7671 0001276 108.5263 251.5876 15.30186966 72264
Epoch: Nov 3, 2025 • Age: 14 hours

現在のステータス

高度 480.7 km
速度 7.63 km/s
衛星直下点 51.49°N, 146°W
打ち上げ日 Jul 28, 2024
運用期間 1.2 years
タイプ internet

技術仕様

分類 Payload
質量 730.00 kg
乾燥質量 700.00 kg
総質量 730.00 kg
長さ 0.30 m
直径 4.10 m
スパン 29.00 m
形状 Box + pan
製造者 SPXS
バスタイプ Starlink V2M
フェーズステータス In Orbit
所有者/国 SPXS/US

大規模コンステレーション

Loading constellations...